Theta_e
306 308 309 308 310 298 304 305 301 304 312 307 306 303 302 303 301 300 309 307 310 315 315 318 321 321 321 324 323 323 325 327 330 330 331 332 333 335 337 339 340 343 344 346 347 348 347 348 349 350 353 355 355 355 356 357 358 360 359 359 359 360 361
305 309 310 309 309 310 304 300 305 308 311 312 307 298 302 300 296 301 304 302 305 306 303 324 318 318 319 322 323 322 326 328 327 328 332 333 333 335 339 341 344 344 344 346 346 347 347 348 349 351 355 356 356 357 357 357 358 358 359 359 359 359 360
307 306 307 306 309 311 307 306 312 304 300 299 311 305 295 296 295 297 302 305 305 308 307 313 314 318 319 324 327 323 323 324 326 328 331 334 335 335 337 338 341 342 344 345 347 347 347 349 352 354 355 356 356 357 357 357 357 358 359 359 360 360 360
305 305 305 298 303 306 306 309 307 309 308 306 302 303 308 302 297 297 298 300 300 310 311 314 313 319 325 323 324 323 322 325 327 329 330 333 334 335 336 337 340 342 343 344 346 347 347 349 351 352 352 353 353 354 356 357 358 359 360 359 359 359 359
303 299 302 301 303 301 302 304 303 305 306 308 309 307 304 300 299 298 298 297 303 311 317 316 319 322 325 325 325 328 327 325 327 329 330 333 335 336 337 338 339 341 342 343 346 348 348 350 352 351 350 351 352 353 354 355 356 357 357 358 358 359 359
299 302 306 305 305 305 304 303 303 304 303 302 298 298 304 304 301 296 298 296 307 313 318 320 321 322 323 326 326 328 328 327 328 329 331 335 335 337 338 338 339 340 343 344 346 348 350 350 349 349 350 351 352 352 353 354 354 355 355 357 359 359 360
301 304 307 308 308 308 307 306 304 307 306 306 302 295 300 302 303 305 306 301 304 321 321 320 321 321 321 324 324 324 325 328 328 329 329 334 337 337 336 338 338 340 344 345 347 349 350 350 351 351 351 351 352 353 354 354 354 355 355 357 359 361 360
307 307 306 306 305 306 304 305 307 306 303 305 304 303 309 302 304 301 301 299 304 318 324 322 319 327 326 326 322 325 325 327 328 328 329 334 336 338 338 339 339 343 345 347 349 350 351 351 352 352 352 353 353 353 353 354 354 355 356 357 358 360 359
299 301 304 304 305 305 303 303 305 306 306 307 307 310 311 303 305 303 301 295 302 316 326 323 322 320 319 320 322 326 326 330 328 329 332 334 338 339 338 340 342 344 344 346 349 349 351 352 352 353 353 353 353 354 354 354 355 356 357 358 358 358 358
290 290 292 294 299 301 304 305 304 305 305 305 305 301 305 297 308 308 301 301 312 321 323 320 321 321 321 322 323 323 326 329 328 329 331 336 337 338 339 341 342 341 345 349 350 351 352 351 351 353 354 353 353 354 355 355 355 356 357 358 358 357 356
297 300 304 309 307 304 300 302 303 303 304 306 306 310 303 298 305 303 305 309 308 313 315 319 319 322 320 321 326 326 328 328 330 333 334 334 337 338 337 341 342 346 346 346 348 350 350 350 352 353 353 353 353 355 355 355 356 356 358 358 358 357 355
306 305 306 307 306 303 303 302 302 304 304 305 304 303 301 316 304 298 308 315 309 311 316 320 322 322 325 327 329 328 329 330 329 330 334 333 334 336 340 340 341 342 345 347 348 349 350 350 353 352 353 354 354 355 354 355 355 355 357 358 358 356 355
305 306 306 306 305 305 305 304 304 303 304 305 303 306 308 312 303 300 310 314 313 314 315 319 322 324 325 323 327 328 330 329 330 331 329 330 331 334 335 339 342 343 344 346 347 348 349 350 350 351 352 353 355 355 355 356 354 355 357 358 357 356 354
303 304 305 305 304 304 304 304 304 305 304 304 305 306 308 309 311 310 314 316 313 313 315 318 322 327 325 327 328 326 325 325 330 329 331 330 331 332 334 338 339 342 344 346 347 348 349 349 350 350 351 352 353 352 353 354 355 355 358 358 357 355 353
301 303 304 304 303 303 302 304 305 305 305 305 305 306 307 310 309 311 311 316 315 318 323 323 328 330 323 322 320 321 327 329 328 329 329 331 331 332 336 339 339 341 343 345 347 347 348 348 349 350 351 352 352 351 352 353 354 356 358 358 357 355 353
300 303 303 303 303 303 302 302 304 304 303 302 303 304 309 307 307 310 309 308 309 316 320 319 322 323 324 322 325 327 328 327 330 329 330 331 333 333 335 337 338 340 341 343 344 345 346 348 349 350 351 351 350 350 352 353 353 355 355 356 355 355 354
301 305 304 303 302 301 298 300 303 305 304 306 306 306 310 308 309 308 306 306 315 318 323 319 320 318 322 324 324 327 329 331 329 331 332 332 333 334 336 337 338 338 338 341 343 344 345 346 347 349 351 349 349 351 352 354 354 355 355 355 355 354 353
302 305 302 302 299 292 295 306 308 307 305 305 304 304 306 309 312 311 314 315 318 322 321 317 320 321 324 326 331 331 331 331 331 331 334 334 333 334 334 337 337 339 340 341 343 346 347 348 347 350 350 349 351 353 354 356 356 355 355 355 355 353 352
301 303 302 298 293 296 309 315 314 309 308 308 306 307 308 309 312 314 315 317 321 323 320 322 323 324 331 325 325 323 323 328 330 331 330 333 333 334 336 337 337 340 342 343 344 345 345 345 348 349 348 349 351 352 353 353 355 355 354 354 353 352 351
304 301 300 292 295 308 312 311 313 313 310 309 308 306 311 315 311 314 312 316 318 324 323 322 325 325 324 324 326 326 326 329 329 328 329 330 331 333 335 338 340 342 340 341 341 344 346 347 347 346 347 348 347 350 353 353 354 354 353 352 352 351 349
299 302 300 299 309 306 308 308 311 312 310 306 305 302 306 315 316 315 315 317 321 321 321 321 321 324 322 324 324 323 324 325 327 330 332 331 334 337 339 338 341 346 346 346 345 349 347 346 346 346 348 347 348 350 350 351 352 352 351 350 350 349 347
304 301 298 300 299 296 305 311 315 316 314 316 316 314 311 318 319 318 317 319 320 322 320 319 322 324 319 315 320 325 326 325 326 328 332 333 335 337 338 346 345 347 347 348 348 345 346 348 351 351 349 349 350 349 350 351 350 350 349 348 349 348 347
303 302 297 297 296 300 313 312 314 316 317 316 316 309 305 319 319 319 319 318 321 322 321 322 322 318 313 315 323 328 329 327 327 330 331 333 335 338 339 341 343 345 348 348 346 348 348 346 346 349 350 350 349 348 349 349 348 347 347 348 347 346 346
303 301 298 297 303 303 311 313 315 316 318 315 312 300 302 319 319 320 320 319 320 321 323 322 321 318 313 317 322 329 333 333 335 337 337 337 337 339 342 344 346 346 346 346 346 346 344 343 345 347 348 347 348 347 347 346 346 346 346 347 347 347 346
303 300 301 304 306 314 314 313 315 316 317 313 304 297 311 319 321 320 319 319 320 322 321 320 319 321 328 331 333 336 336 335 337 339 341 341 342 341 341 341 343 343 344 344 343 343 342 343 344 345 346 345 344 344 344 345 345 346 347 347 346 345 345
301 303 299 300 306 311 312 315 315 318 310 302 303 315 316 319 318 319 319 318 319 321 325 325 328 332 333 334 336 337 338 338 339 339 339 339 339 340 341 341 341 340 340 340 341 340 341 341 342 343 345 344 342 343 343 343 345 345 345 345 345 344 343
305 303 300 297 293 311 315 313 316 318 309 314 315 318 320 320 322 322 324 324 326 329 329 332 333 332 333 334 336 337 339 340 340 340 340 340 339 339 339 339 340 340 340 340 339 338 337 339 341 343 344 342 342 342 343 344 344 344 344 344 343 343 342
304 302 299 297 309 312 315 313 309 316 318 319 321 322 320 325 326 326 327 329 331 332 332 331 332 333 333 334 336 336 337 338 340 341 343 343 341 339 337 337 339 340 338 336 334 335 336 339 341 342 344 342 342 342 343 343 343 343 343 343 342 342 341
307 305 311 313 315 315 316 315 315 320 324 326 326 326 325 325 325 329 327 327 329 330 331 331 331 330 332 333 334 335 335 336 336 335 336 338 339 339 338 337 339 339 338 337 336 336 337 339 341 342 344 344 343 343 342 341 342 341 342 341 340 340 340
315 313 314 316 316 316 314 316 315 315 317 319 321 321 319 320 322 325 325 326 327 330 332 328 329 330 331 331 332 334 336 337 340 340 339 339 340 340 340 338 338 338 338 338 337 336 337 339 340 341 343 345 345 344 341 341 342 342 341 340 339 340 340
306 300 316 312 312 315 314 313 315 316 316 316 318 319 320 320 320 320 322 322 323 325 327 328 328 328 330 330 332 335 335 335 337 339 342 342 342 342 340 340 340 339 338 337 337 337 336 337 339 339 341 342 345 342 340 341 340 341 340 340 339 338 338
309 307 312 315 315 315 317 315 314 314 316 317 318 319 321 321 322 322 324 325 324 325 324 328 327 327 330 331 332 331 333 335 336 337 338 340 341 339 341 341 341 340 340 340 338 338 337 337 338 339 339 340 341 340 339 338 339 340 339 339 339 338 337
309 312 313 313 314 315 317 316 316 316 317 317 317 318 318 320 320 320 320 321 322 324 325 328 328 328 329 331 333 331 334 336 336 336 337 338 339 340 340 340 341 342 340 339 339 338 337 337 337 338 339 338 338 339 338 338 340 339 339 338 338 338 338
305 307 308 312 306 305 314 316 316 316 316 317 317 316 316 317 317 317 316 317 320 321 323 324 324 323 324 326 330 329 333 335 336 336 335 335 336 337 338 339 339 339 340 340 338 337 337 337 337 338 338 338 338 337 337 338 339 339 339 338 338 338 338
305 311 313 313 312 313 313 316 315 315 317 317 316 316 315 315 316 317 316 315 316 317 318 321 320 320 320 321 323 323 326 331 334 335 335 334 335 335 337 337 338 339 339 338 338 337 337 337 338 338 338 338 339 337 338 339 339 340 339 337 335 335 335
309 310 311 312 313 309 311 315 316 316 315 315 312 312 314 317 317 317 317 318 316 316 316 317 319 319 319 320 321 321 323 325 327 329 332 334 335 336 337 337 337 336 336 337 336 337 337 337 338 338 337 337 338 338 339 339 340 340 338 337 335 334 335
308 310 312 313 312 312 314 314 315 317 319 319 314 313 314 314 315 317 318 317 320 317 317 316 318 320 319 320 321 322 322 323 325 327 329 331 331 333 333 336 337 337 337 337 338 338 337 337 338 338 338 338 339 338 339 339 338 338 338 337 335 335 336
Wind_Speed
9 11 8 8 11 12 7 6 14 9 7 10 4 3 4 4 1 7 5 4 5 5 11 15 11 8 14 9 9 9 12 12 12 12 14 17 17 17 16 17 17 17 16 16 16 16 15 16 15 16 17 17 18 16 15 16 15 14 15 16 15 13 13
9 7 11 12 12 3 7 11 9 7 4 3 6 10 4 7 10 5 5 8 6 3 5 1 1 6 12 11 12 11 8 11 13 14 14 15 17 19 19 18 16 17 19 19 18 17 19 19 19 18 18 17 15 15 16 16 15 15 15 14 14 14 14
11 6 4 9 11 5 9 5 13 13 7 10 1 3 8 7 9 6 4 7 8 7 7 0 7 7 9 11 7 7 9 12 16 15 15 15 16 15 15 17 14 15 15 16 17 18 19 18 18 17 17 15 13 14 15 16 17 18 16 13 13 12 13
5 7 10 15 13 5 3 4 12 2 4 7 9 7 0 5 10 4 8 5 8 8 6 7 12 10 9 12 8 9 12 14 13 13 14 14 15 15 16 16 16 17 18 20 20 19 19 19 18 17 17 16 19 18 16 16 15 13 13 14 14 15 15
5 9 8 15 14 13 8 9 9 5 3 3 1 3 8 9 8 7 8 7 4 4 7 10 11 12 12 12 11 8 10 13 15 14 13 13 14 14 14 15 16 18 18 19 19 18 18 17 15 15 16 18 18 17 17 17 17 17 16 16 15 14 12
10 9 9 12 14 14 12 12 11 12 8 8 12 10 3 2 8 3 7 12 3 6 6 11 13 13 12 11 11 11 10 10 11 10 12 12 13 14 16 16 17 17 17 17 17 16 15 14 16 17 16 16 17 17 17 18 17 16 17 16 15 15 12
12 12 9 10 12 14 15 14 13 14 12 10 10 13 6 2 3 3 2 5 6 5 7 10 12 12 14 10 4 9 9 9 4 7 10 11 12 14 16 16 16 15 15 16 17 18 18 19 18 19 17 16 17 18 17 16 17 18 18 17 15 12 10
3 1 4 1 2 8 13 16 15 13 17 16 14 10 6 9 6 6 4 8 5 4 2 5 9 8 5 3 6 10 9 7 3 6 9 11 12 13 13 13 11 11 13 13 12 14 14 14 14 16 15 14 15 15 16 15 17 18 17 15 14 12 11
6 10 7 6 1 4 9 9 12 15 15 15 9 4 3 10 11 12 7 13 6 6 2 2 4 9 11 12 10 7 9 6 4 5 8 9 9 9 12 12 11 11 12 14 13 14 14 14 14 14 14 14 15 15 16 16 16 18 16 14 13 12 13
13 12 14 16 12 10 4 3 6 9 18 17 6 11 4 9 6 13 11 10 4 2 0 3 5 5 10 12 11 7 8 8 6 6 7 8 10 12 12 11 11 15 13 11 11 13 12 13 14 14 13 14 14 14 15 15 15 15 15 13 13 12 13
13 11 7 2 4 5 12 9 11 10 13 11 13 4 10 12 5 9 8 8 6 7 8 7 9 7 11 14 11 9 10 9 7 7 8 9 10 11 13 13 10 8 10 14 15 14 14 15 14 13 14 14 14 13 14 15 14 13 13 12 12 12 13
14 15 15 11 15 15 13 15 15 16 15 15 17 13 12 7 7 12 9 8 12 10 10 11 11 10 9 10 10 8 7 9 8 7 5 5 7 9 9 10 13 15 13 12 14 15 14 13 12 11 12 12 12 12 13 13 13 12 11 12 12 12 13
18 18 18 13 11 17 15 17 16 17 18 17 20 16 12 12 12 13 8 10 11 10 11 11 12 12 13 14 16 14 5 2 3 6 10 12 12 11 14 14 13 13 14 13 14 14 13 13 13 13 12 11 11 11 12 12 13 14 12 12 13 13 12
16 16 17 11 14 12 15 17 17 17 19 20 21 19 16 15 11 12 10 14 16 13 12 11 12 13 12 9 2 2 6 11 9 11 11 12 13 14 15 15 15 13 13 13 13 13 12 14 14 13 12 12 13 13 13 12 12 13 11 12 12 12 13
14 16 15 12 14 15 17 15 14 16 17 18 20 20 18 16 15 10 7 10 11 9 7 9 4 2 1 2 8 11 9 7 10 12 13 13 14 14 12 10 12 12 12 12 12 13 13 14 15 13 11 11 10 12 12 13 13 12 11 11 11 11 13
8 8 10 13 15 17 19 20 19 14 12 14 10 10 4 9 9 9 8 7 7 7 8 7 6 4 4 9 12 10 8 11 11 13 12 12 12 13 12 11 11 11 12 13 13 14 15 14 13 12 11 11 11 12 11 12 13 12 12 13 13 12 11
6 3 6 10 12 9 12 17 18 17 13 11 11 12 11 15 14 11 10 10 7 10 5 7 7 10 11 9 8 9 9 8 11 13 13 13 12 12 12 13 13 14 15 15 15 14 12 12 13 13 11 11 11 12 12 12 11 11 12 12 11 11 11
6 4 3 4 4 10 10 10 17 18 18 17 14 12 12 12 11 7 9 9 11 9 5 10 10 11 11 11 7 2 3 7 9 11 9 9 11 11 12 13 13 13 10 9 10 11 11 11 11 11 13 13 12 11 10 9 11 10 11 11 11 11 10
5 2 3 4 9 10 6 1 1 13 20 19 21 18 18 17 15 10 5 7 7 9 12 13 13 11 1 3 4 4 4 5 6 7 3 3 8 10 11 10 10 9 9 9 9 8 10 12 11 11 10 9 8 8 9 10 10 10 10 10 10 9 10
2 2 3 4 4 4 6 3 2 3 0 5 10 15 8 6 13 14 14 13 13 10 7 6 1 3 4 3 3 2 3 4 7 9 8 10 10 11 11 12 11 12 13 13 13 12 10 9 9 10 10 9 9 9 9 9 9 9 9 9 9 8 8
5 1 3 8 6 8 4 3 4 4 6 10 14 12 13 15 12 13 13 14 8 4 5 5 4 5 5 3 1 2 1 4 5 5 7 10 10 6 6 9 11 10 10 10 9 8 8 8 9 8 8 9 9 8 9 8 8 8 9 9 8 8 8
2 4 6 5 6 9 6 3 1 3 5 7 8 4 6 4 8 11 12 12 10 7 5 7 8 8 6 6 5 1 0 1 3 2 5 8 8 9 9 5 7 7 7 7 7 7 8 6 4 5 7 8 8 8 8 7 8 8 8 8 7 8 9
3 4 4 4 7 6 4 4 7 7 6 7 5 4 10 6 11 11 12 12 9 10 10 10 10 9 9 9 5 3 2 2 4 7 8 8 9 9 8 9 10 9 8 9 9 9 8 7 5 6 7 8 7 7 6 6 6 7 7 6 7 8 8
2 3 4 7 3 4 4 8 10 12 9 2 4 9 8 9 9 9 11 11 10 10 9 12 12 12 11 8 5 5 6 6 6 7 9 10 11 11 11 11 10 11 11 12 10 9 8 7 7 8 8 7 7 6 5 5 5 5 5 6 6 7 8
1 2 5 3 5 1 6 11 16 14 6 4 8 10 2 4 2 6 7 8 8 7 9 10 7 2 4 6 9 9 11 13 11 10 10 10 11 13 13 12 12 11 9 9 10 9 7 6 6 6 7 7 7 6 5 5 5 4 5 6 7 8 8
6 2 5 7 6 3 9 15 15 8 3 8 10 2 3 6 2 2 4 6 7 7 5 4 6 7 9 10 7 7 9 14 13 13 12 14 15 14 14 12 12 11 10 10 10 9 7 7 6 6 7 8 7 6 5 5 5 5 6 7 7 8 8
2 2 4 5 6 3 15 19 9 3 5 2 1 2 6 4 6 8 9 8 6 7 9 9 10 11 12 11 10 9 7 9 13 13 13 14 14 14 13 11 8 11 10 10 9 9 7 7 5 5 7 8 7 6 4 5 5 6 6 7 8 8 9
2 1 2 2 4 9 12 10 5 8 8 7 4 0 6 6 6 9 10 10 10 10 10 13 12 12 13 10 9 12 12 11 9 10 10 10 9 10 10 10 8 11 11 9 9 8 7 6 6 5 5 7 6 6 6 6 6 6 7 7 8 8 9
5 5 1 5 5 7 8 8 7 7 8 4 4 7 7 8 8 6 10 11 10 10 13 14 13 14 12 12 11 13 11 11 11 12 11 12 12 11 11 11 10 10 9 9 9 9 7 7 5 5 5 6 7 7 6 6 7 7 7 8 8 8 8
4 6 4 5 4 7 10 9 9 9 8 8 4 7 12 10 10 10 11 11 13 12 10 15 13 13 12 14 13 13 12 11 11 10 10 10 10 10 10 11 10 9 8 9 10 9 7 5 5 5 5 5 6 5 6 6 6 6 7 8 8 8 8
7 3 4 2 5 6 9 9 9 9 9 7 6 9 9 8 10 13 13 12 12 12 13 14 13 13 12 13 12 11 10 11 11 11 10 8 7 8 10 8 9 8 7 8 8 8 7 5 4 4 4 3 3 6 6 6 7 7 7 7 8 8 8
2 3 12 9 6 9 5 5 7 8 9 10 9 9 10 11 12 12 11 13 14 13 14 13 13 13 12 12 10 10 9 9 9 9 9 8 8 8 6 5 6 7 7 7 7 7 6 5 4 4 4 4 4 6 6 6 7 7 7 7 7 8 9
0 5 3 9 16 7 6 6 7 7 8 8 10 12 14 14 15 15 16 14 12 13 12 12 13 13 12 10 10 11 9 9 9 8 8 8 7 7 6 5 5 5 5 6 5 4 4 4 4 4 4 4 6 7 6 6 7 7 7 8 7 8 8
4 6 8 11 14 7 4 2 2 7 8 9 10 13 16 15 13 13 16 15 15 14 13 13 13 13 9 10 10 12 11 10 9 9 9 8 8 8 6 4 5 5 5 4 4 3 3 4 4 5 5 5 5 6 6 6 7 8 7 7 7 7 7
1 4 7 4 7 3 7 10 4 3 8 9 11 11 13 13 12 11 14 15 15 15 13 12 14 11 10 8 9 12 10 10 9 9 8 7 7 6 4 3 3 4 3 2 2 4 4 5 5 5 5 4 4 5 5 6 8 7 7 6 6 6 7
5 5 7 9 5 6 5 5 7 3 6 10 12 11 11 12 10 11 11 10 11 10 11 11 10 10 9 8 11 11 10 10 10 10 10 9 8 6 4 4 2 2 2 3 4 5 4 5 5 5 5 4 5 5 6 7 7 7 7 7 6 6 7
2 5 11 12 13 12 10 11 8 6 9 11 9 9 9 11 11 10 10 9 9 11 11 11 9 8 9 10 11 11 9 9 9 8 8 7 7 6 5 3 2 2 4 4 4 4 5 5 5 5 5 5 5 5 6 6 7 7 8 7 7 6 6
Wind_Direction
197 197 156 200 164 215 153 166 210 205 127 186 87 69 31 62 272 234 147 246 237 289 283 266 259 242 257 242 243 220 217 200 183 196 195 198 200 201 199 202 203 197 193 193 193 190 191 191 189 191 191 190 193 191 191 194 195 191 190 194 197 197 199
225 212 195 193 208 176 116 205 195 78 11 319 186 229 125 220 231 219 169 216 235 188 257 190 253 237 253 239 224 221 202 181 198 206 195 194 196 197 196 196 195 191 192 193 192 192 191 190 191 194 194 192 191 190 191 191 191 195 196 195 197 197 200
186 167 191 227 213 191 224 237 132 183 168 202 142 196 207 191 217 228 185 226 248 211 234 273 270 265 261 257 220 176 195 201 211 209 200 196 196 195 196 200 198 196 196 197 194 193 193 193 192 193 192 187 188 192 194 193 195 199 195 194 198 202 204
149 169 179 218 205 180 41 111 179 351 192 192 170 195 108 197 239 211 221 177 228 191 220 213 235 244 255 265 250 198 213 205 209 209 201 193 190 193 194 194 194 193 197 197 193 190 191 193 193 196 192 191 196 196 192 196 199 194 192 194 196 202 205
141 208 190 216 207 191 187 200 189 189 221 352 283 146 208 199 221 212 233 221 198 187 209 219 228 235 239 239 244 237 218 215 212 206 196 190 192 191 191 193 194 195 197 196 194 193 195 195 193 193 194 196 199 196 196 195 193 193 198 202 202 208 201
207 215 181 215 212 210 199 200 199 194 167 171 196 216 101 212 207 193 197 242 160 187 195 207 221 226 231 236 232 243 241 221 213 208 201 190 189 191 190 193 193 196 192 189 189 189 190 189 191 192 195 197 196 196 199 197 199 198 202 203 205 207 198
215 213 191 210 226 214 206 200 207 198 206 196 203 224 174 163 236 48 264 270 240 178 192 210 218 228 235 241 250 264 261 259 210 204 208 196 191 190 195 196 197 192 184 181 183 182 184 186 189 192 194 195 194 197 198 197 197 201 203 205 205 198 184
268 307 69 112 183 218 215 210 211 192 212 209 218 222 141 205 149 201 168 231 210 163 142 236 247 271 312 319 235 245 258 258 209 199 197 187 191 193 192 195 191 182 172 172 174 178 181 187 190 192 193 194 196 200 200 199 202 204 205 208 204 191 183
228 231 220 222 58 220 216 213 208 208 211 212 225 81 63 227 185 200 186 233 185 197 120 238 249 253 256 253 240 226 254 264 229 208 197 192 190 182 189 189 178 165 172 178 181 183 186 190 191 190 190 190 194 197 198 200 204 205 206 207 204 193 188
221 209 207 212 201 203 203 242 200 216 212 201 148 216 157 232 161 201 215 229 154 196 93 237 239 243 254 256 257 242 240 249 225 211 200 190 185 190 188 179 169 182 180 173 176 183 188 190 192 190 191 194 197 198 200 203 207 206 207 205 203 192 190
223 228 229 170 153 139 219 191 211 184 213 205 203 177 215 219 150 211 212 228 205 205 206 215 228 222 232 239 237 225 232 235 226 214 206 197 191 184 186 181 176 150 164 183 184 184 190 192 194 192 192 195 197 197 199 203 207 204 202 200 197 193 191
221 216 213 200 194 208 205 212 207 202 192 193 207 204 219 121 122 229 204 191 218 205 200 204 220 225 236 246 248 248 241 232 217 211 186 195 190 188 171 171 175 184 180 175 180 185 188 192 190 188 192 193 193 195 198 201 202 199 197 195 191 192 192
221 225 225 199 197 218 210 213 209 202 194 190 205 211 211 159 209 229 184 182 208 204 206 208 217 214 219 224 227 225 216 96 173 192 198 199 194 184 184 187 182 172 176 178 180 182 188 187 187 190 190 192 193 195 200 200 200 204 201 193 195 195 193
226 227 226 199 201 216 223 215 211 203 198 198 203 207 206 193 216 227 209 186 206 204 207 212 219 219 220 234 279 14 223 217 193 196 198 198 193 190 192 188 181 179 177 173 177 178 179 184 187 188 189 189 191 194 198 197 198 204 191 192 194 194 196
234 234 229 213 208 215 226 225 216 208 204 203 204 210 204 196 216 210 212 197 220 221 220 220 216 31 345 238 225 225 215 201 195 201 201 196 194 196 192 175 174 174 172 171 171 175 181 186 188 188 187 185 184 196 197 198 198 198 190 193 194 193 199
242 231 231 222 212 216 224 229 223 210 202 207 205 227 176 189 201 212 209 217 231 236 219 240 252 249 237 234 231 221 211 204 195 200 205 197 193 191 182 170 166 164 172 171 175 182 185 185 182 182 179 180 183 197 191 195 199 194 193 197 196 197 197
245 216 217 239 216 215 235 231 226 215 202 207 199 210 191 201 191 200 205 223 215 232 193 195 220 222 230 248 251 237 220 200 201 205 202 196 190 182 170 170 173 176 178 180 180 180 180 178 182 184 171 173 188 191 193 194 187 188 190 195 193 194 192
281 329 72 127 162 222 229 220 217 210 211 204 214 213 208 217 211 211 205 213 217 213 155 198 214 209 217 224 247 291 274 207 212 220 215 195 181 176 176 179 179 176 168 166 173 174 172 174 174 166 177 187 192 188 185 177 183 188 189 195 193 193 186
283 70 167 206 233 241 233 138 215 214 216 210 211 216 212 211 207 215 230 235 224 211 202 203 213 217 170 20 310 262 224 212 207 206 207 181 175 174 170 169 167 154 154 150 153 158 170 176 178 178 186 189 174 173 177 181 186 184 192 193 193 188 183
226 246 182 244 249 335 339 359 109 81 280 242 223 235 244 236 214 205 217 215 220 219 212 220 160 160 142 99 69 4 295 240 205 187 191 180 182 187 181 165 156 157 164 165 170 178 175 167 171 179 181 174 170 170 172 178 180 186 188 193 189 179 173
263 305 265 279 329 284 193 182 164 174 183 176 185 209 225 204 199 198 212 224 217 203 219 197 169 153 155 185 136 67 273 269 266 226 184 173 173 155 146 158 160 164 166 166 164 142 147 166 169 177 159 159 158 153 166 176 173 181 185 190 186 172 172
267 302 308 298 267 264 219 174 22 335 327 315 323 287 230 149 192 198 206 220 210 202 177 172 159 159 175 213 211 111 86 226 210 172 127 128 135 146 153 127 119 117 108 106 112 142 150 147 135 131 135 147 147 152 161 162 171 177 184 188 174 169 175
264 260 283 284 288 279 38 28 350 341 323 318 283 204 236 173 187 189 198 209 202 189 175 159 154 167 197 211 185 119 121 133 151 136 125 122 115 114 117 129 128 118 110 114 116 112 119 113 109 116 122 130 137 143 148 155 168 175 182 175 169 172 172
234 289 272 279 245 302 6 341 339 330 331 339 204 214 220 168 178 186 188 200 193 189 173 160 171 179 198 196 156 140 128 112 99 109 114 110 108 101 96 90 94 98 104 102 99 102 102 97 103 109 117 125 123 125 131 147 166 175 172 167 163 162 161
305 221 288 272 259 183 9 344 325 324 301 214 206 211 154 24 184 169 190 191 172 168 156 164 167 14 358 51 104 129 127 109 93 79 82 91 101 104 100 97 97 93 86 89 95 99 102 109 110 117 124 115 107 107 124 144 165 167 155 147 151 154 157
268 333 297 285 298 68 346 338 325 308 216 189 213 42 289 285 46 114 165 139 137 157 140 119 97 106 94 95 106 116 119 112 111 108 104 95 87 88 95 101 104 103 102 101 101 93 95 106 112 120 119 110 114 123 134 161 163 147 147 150 153 158 169
41 110 294 301 280 74 2 340 324 124 262 357 10 305 26 27 80 92 83 90 88 102 102 95 102 108 105 104 100 95 87 97 105 109 109 109 113 118 117 110 119 119 107 100 97 103 104 104 110 114 112 109 114 127 154 159 150 151 149 150 157 166 175
180 122 225 281 357 326 342 350 320 346 319 319 292 34 80 39 77 91 92 74 81 84 92 97 92 93 96 90 94 94 88 85 86 82 81 83 86 84 79 84 88 90 95 98 101 99 102 107 107 107 117 116 134 151 156 151 149 145 147 155 166 172 176
171 178 189 324 332 314 352 343 335 328 332 349 40 77 76 78 51 57 79 82 72 80 93 86 87 79 69 75 66 68 64 67 71 72 63 65 66 65 69 72 68 67 85 100 101 95 94 104 115 130 148 145 155 157 147 152 151 149 150 156 170 175 179
151 82 90 283 304 344 2 356 2 0 356 358 9 72 83 60 66 59 74 70 71 66 67 84 70 71 72 66 61 61 59 64 67 74 76 77 83 90 93 88 81 91 94 92 93 96 99 114 131 154 168 169 157 140 142 151 151 153 155 159 173 180 178
137 144 184 127 15 348 10 358 352 22 20 5 12 42 55 66 65 70 64 67 60 57 54 59 67 61 59 70 65 59 52 46 47 54 57 59 62 77 86 103 118 115 113 107 108 116 122 139 156 164 170 162 126 130 148 156 159 160 164 164 169 175 177
285 168 162 129 63 15 357 6 352 16 14 8 20 52 55 55 51 49 50 58 57 55 56 49 57 53 44 49 50 55 53 49 46 47 48 46 54 51 61 90 103 103 103 110 121 128 136 155 164 165 163 161 148 154 157 164 158 161 167 170 170 171 175
33 33 6 134 110 97 320 343 51 37 24 6 19 36 56 56 56 55 50 50 61 62 63 62 62 57 43 39 47 53 43 38 37 38 39 43 42 50 50 43 43 64 86 93 107 122 129 150 169 171 174 172 169 164 163 161 160 171 171 169 169 166 174
179 182 200 156 123 155 213 267 42 79 60 42 47 55 55 52 55 59 64 55 51 55 56 65 70 63 48 42 49 52 47 44 39 39 40 40 41 41 41 38 44 56 64 90 120 143 155 173 182 186 180 176 169 170 161 166 172 175 168 165 167 168 175
62 14 210 338 5 81 135 131 26 4 91 82 65 59 68 61 52 57 67 68 57 51 44 49 65 64 55 37 55 60 52 45 47 47 46 47 50 58 53 65 69 72 84 120 149 182 189 187 189 187 182 171 167 171 171 180 184 176 166 163 172 179 179
306 340 65 28 76 101 88 71 95 23 38 75 71 64 67 67 57 57 60 57 77 75 64 49 49 61 57 46 58 58 47 42 45 48 50 52 46 42 41 40 62 115 138 172 198 207 199 199 195 188 182 174 173 178 185 189 187 179 175 172 179 182 182
343 35 78 81 86 82 74 78 65 58 61 63 63 57 58 79 80 72 72 60 44 66 71 66 49 48 61 56 56 57 49 44 42 39 43 47 46 47 48 59 119 175 185 189 192 194 193 200 197 189 187 177 175 184 185 186 188 184 184 187 191 179 168